SCP
0 0 0 0 0 0 0 0 0 0 0 0 0 0 0 0 0 0 0 0 1 1 1 1 1 1 1 1 1 1 1 1 0 0 0 0 0 0 0 0 0 0 0 0 0 0 0 0 0
0 0 0 0 0 0 0 0 0 0 0 0 0 0 0 0 0 0 0 0 1 1 1 1 1 1 1 1 1 1 1 1 1 0 0 0 0 0 0 0 0 0 0 0 0 0 0 0 0
0 0 0 0 0 0 0 0 0 0 0 0 0 0 0 0 0 0 0 1 1 1 1 1 1 1 1 1 1 1 1 1 1 1 0 0 0 0 0 0 0 0 0 0 0 0 0 0 0
0 0 0 0 0 0 0 0 0 0 0 0 0 0 0 0 0 0 0 1 1 1 1 1 1 1 1 1 1 1 1 1 1 0 0 0 0 0 0 0 0 0 0 0 0 0 0 0 0
0 0 0 0 0 0 0 0 0 0 0 0 0 0 0 0 0 0 0 1 1 1 1 1 1 1 1 1 1 1 1 1 0 0 0 0 0 0 0 0 0 0 0 0 0 0 0 0 0
0 0 0 0 0 0 0 0 0 0 0 0 0 0 0 0 0 0 0 1 1 1 1 1 1 1 1 1 1 1 1 1 0 0 0 0 0 0 0 0 0 0 0 0 0 0 0 0 0
0 0 0 0 0 0 0 0 0 0 0 0 0 0 0 0 0 0 0 1 1 1 1 1 1 1 1 1 1 1 1 1 1 0 0 0 0 0 0 0 0 0 0 0 0 0 0 0 0
0 0 0 0 0 0 0 0 0 0 0 0 0 0 0 0 0 0 0 1 1 1 1 1 1 1 1 1 0 0 1 1 0 0 0 0 0 0 0 0 0 0 0 0 0 0 0 0 0
0 0 0 0 0 0 0 0 0 0 0 0 0 0 0 0 0 0 1 1 1 1 1 1 1 1 0 0 0 0 0 0 0 0 0 0 0 0 0 0 0 0 0 0 0 0 0 0 0
0 0 0 0 0 0 0 0 0 0 0 0 0 0 0 0 0 0 1 1 1 1 1 1 1 1 0 0 0 0 0 0 0 0 0 0 0 0 0 0 0 0 0 0 0 0 0 0 0
0 0 0 0 0 0 0 0 0 0 0 0 0 0 0 0 0 0 0 1 1 1 1 1 1 0 0 0 0 0 0 0 0 0 0 0 0 0 0 0 0 0 0 0 0 0 0 0 0
0 0 0 0 0 0 0 0 0 0 0 0 0 0 0 0 0 0 0 0 0 0 0 0 0 0 0 0 0 0 0 0 0 0 0 0 0 0 0 0 0 0 0 0 0 0 0 0 0
0 0 0 0 0 0 0 0 0 0 0 0 0 0 0 0 0 0 0 0 0 0 0 0 0 0 0 0 0 0 0 0 0 0 0 0 0 0 0 0 0 0 0 0 0 0 0 0 0
0 0 0 0 0 0 0 0 0 0 0 0 0 0 0 0 0 0 0 0 0 0 0 0 0 0 0 0 0 0 0 0 0 0 0 0 0 0 0 0 0 0 0 0 0 0 0 0 0
0 0 0 0 0 0 0 0 0 0 0 0 0 0 0 0 0 0 0 0 0 0 0 0 0 0 0 0 0 0 0 0 0 0 0 0 0 0 0 0 0 0 0 0 0 0 0 0 0
0 0 0 0 0 0 0 0 0 0 0 0 0 0 0 0 0 0 0 0 0 0 0 0 0 0 0 0 0 0 0 0 0 0 0 0 0 0 0 0 0 0 0 0 0 0 0 0 0
0 0 0 0 0 0 0 0 0 0 0 0 0 0 0 0 0 0 0 0 0 0 0 0 0 0 0 0 0 0 0 0 0 0 0 0 0 0 0 0 0 0 0 0 0 0 0 0 0
0 0 0 0 0 0 0 0 0 0 0 0 0 0 0 0 0 0 0 0 0 0 0 0 0 0 0 0 0 0 0 0 0 0 0 0 0 0 0 0 0 0 0 0 0 0 0 0 0
0 0 0 0 0 0 0 0 0 0 0 0 0 0 0 0 0 0 0 0 0 0 0 0 0 0 0 0 0 0 0 0 0 0 0 0 0 0 0 0 0 0 0 0 0 0 0 0 0
0 0 0 0 0 0 0 0 0 0 0 0 0 0 0 0 0 0 0 0 0 0 0 0 0 0 0 0 0 0 0 0 0 0 0 0 0 0 0 0 0 0 0 0 0 0 0 0 0
0 0 0 0 0 0 0 0 0 0 0 0 0 0 0 0 0 0 0 0 0 0 0 0 0 0 0 0 0 0 0 0 0 0 0 0 0 0 0 0 0 0 0 0 0 0 0 0 0
0 0 0 0 0 0 0 0 0 0 0 0 0 0 0 0 0 0 0 0 0 0 0 0 0 0 0 0 0 0 0 0 0 0 0 0 0 0 0 0 0 0 0 0 0 0 0 0 0
0 0 0 0 0 0 0 0 0 0 0 0 0 0 0 0 0 0 0 0 0 0 0 0 0 0 0 0 0 0 0 0 0 0 0 0 0 0 0 0 0 0 0 0 0 0 0 0 0
0 0 0 0 0 0 0 0 0 0 0 0 0 0 0 0 0 0 0 0 0 0 0 0 0 0 0 0 0 0 0 0 0 0 0 0 0 0 0 0 0 0 0 0 0 0 0 0 0
0 0 0 0 0 0 0 0 0 0 0 0 0 0 0 0 0 0 0 0 0 0 0 0 0 0 0 0 0 0 0 0 0 0 0 0 0 0 0 0 0 0 0 0 0 0 0 0 0
0 0 0 0 0 0 0 0 0 0 0 0 0 0 0 0 0 0 0 0 0 0 0 0 0 0 0 0 0 0 0 0 0 0 0 0 0 0 0 0 0 0 0 0 0 0 0 0 0
0 0 0 0 0 0 0 0 0 0 0 0 0 0 0 0 0 0 0 0 0 0 0 0 0 0 0 0 0 0 0 0 0 0 0 0 0 0 0 0 0 0 0 0 0 0 0 0 0
0 0 0 0 0 0 0 0 0 0 0 0 0 0 0 0 0 0 0 0 0 0 0 0 0 0 0 0 0 0 0 0 0 0 0 0 0 0 0 0 0 0 0 0 0 0 0 0 0
0 0 0 0 0 0 0 0 0 0 0 0 0 0 0 0 0 0 0 0 0 0 0 0 0 0 0 0 0 0 0 0 0 0 0 0 0 0 0 0 0 0 0 0 0 0 0 0 0
0 0 0 0 0 0 0 0 0 0 0 0 0 0 0 0 0 0 0 0 0 0 0 0 0 0 0 0 0 0 0 0 0 0 0 0 0 0 0 0 0 0 0 0 0 0 0 0 0
Wind_Speed
8 9 7 3 4 6 11 10 8 6 4 2 2 1 2 2 2 6 4 5 11 12 14 13 13 13 12 12 11 11 11 11 10 10 10 10 10 9 9 9 9 9 8 8 8 8 8 8 8
8 8 5 4 6 9 10 11 10 6 2 1 2 2 2 3 5 8 5 7 11 12 12 12 13 13 13 12 12 12 11 11 11 11 11 10 10 10 9 9 9 8 8 8 8 8 8 8 7
10 8 4 5 7 10 9 7 8 4 3 3 1 1 2 3 4 5 7 9 11 11 11 12 13 13 13 13 12 12 12 12 12 12 11 11 10 10 10 9 9 9 8 9 8 8 8 7 7
5 4 5 8 13 12 10 5 2 3 2 3 3 2 3 3 4 6 8 10 11 11 11 12 14 14 13 13 13 12 12 12 12 11 11 11 11 10 10 10 9 9 9 9 8 8 7 7 6
4 4 7 10 14 13 10 5 2 3 4 4 4 3 3 3 8 9 7 9 11 10 10 12 13 14 13 13 13 12 12 11 11 11 11 11 11 10 10 10 10 10 9 9 8 8 7 7 6
4 4 8 11 14 13 10 6 3 3 4 4 5 3 2 5 8 6 7 7 10 11 10 11 13 14 13 13 12 12 12 11 11 11 11 11 10 10 10 10 9 9 9 8 7 7 7 7 6
5 5 10 11 12 12 10 5 4 4 4 4 4 4 4 6 6 6 6 7 10 11 10 9 9 11 12 12 12 12 11 11 11 10 10 10 10 10 9 9 9 8 8 7 6 6 6 6 5
4 4 9 12 12 10 6 4 3 4 3 1 0 2 5 7 6 6 6 6 8 9 9 9 9 9 8 8 11 11 11 11 10 10 9 9 9 9 9 9 8 7 7 7 6 6 5 5 4
5 6 9 11 10 7 4 3 2 2 0 1 2 2 8 10 7 6 6 6 6 7 7 7 8 8 8 7 9 9 9 9 9 7 7 5 4 5 6 7 7 7 6 6 5 4 4 3 2
6 8 11 8 7 5 3 2 2 3 3 2 3 6 10 9 8 6 7 7 7 7 6 6 7 7 7 6 6 5 5 5 4 4 4 3 4 3 4 6 6 5 4 4 3 3 2 2 1
7 9 10 10 6 5 2 2 2 5 5 5 7 9 10 9 8 7 7 7 7 7 6 6 6 6 6 5 4 3 3 3 3 4 4 4 3 3 2 2 2 2 2 2 1 1 1 1 1
9 11 11 8 4 4 3 3 4 6 4 2 5 9 9 9 9 8 7 7 7 7 6 6 6 5 5 5 4 3 3 2 3 3 4 3 3 2 2 2 2 1 1 1 1 1 1 2 2
12 10 10 7 4 5 5 5 5 5 3 0 5 7 7 8 7 7 7 7 7 7 7 6 6 6 5 4 4 4 3 3 4 3 3 3 3 2 2 2 2 2 1 1 1 2 2 2 2
9 9 10 9 7 6 6 6 5 5 2 3 6 7 7 7 7 6 6 7 7 7 7 6 6 5 6 5 4 4 4 4 4 3 3 3 3 3 2 2 2 2 2 1 1 2 2 2 2
6 8 9 9 8 6 4 8 8 6 4 4 6 7 6 5 5 5 5 5 6 7 7 7 6 6 6 6 5 4 4 4 4 3 4 4 3 3 3 2 2 2 1 2 2 2 2 2 2
5 7 8 9 9 6 5 9 6 5 6 6 6 6 6 5 5 4 4 5 5 6 7 7 6 6 6 5 5 4 4 4 3 3 3 4 4 3 3 2 2 1 2 1 1 2 2 2 2
6 8 9 8 9 7 8 7 5 4 6 6 6 5 5 5 4 4 4 4 5 6 7 6 6 7 6 6 5 5 4 4 3 3 3 3 4 3 3 2 2 2 2 2 2 2 2 2 2
8 8 9 9 7 8 9 7 3 4 4 4 4 5 5 5 5 5 4 4 4 5 6 6 6 6 6 5 4 4 4 3 3 3 4 4 3 3 3 2 2 2 2 1 1 2 2 1 1
6 8 9 7 5 7 8 7 5 4 5 4 4 4 5 4 4 5 5 5 4 4 5 6 6 6 6 5 4 4 3 3 3 3 4 4 4 3 3 2 2 2 2 1 1 1 2 2 2
8 8 8 4 3 4 6 7 5 5 5 4 4 4 4 4 4 5 5 5 4 4 5 5 5 6 6 4 4 4 4 3 3 3 4 4 4 3 3 3 2 2 2 2 2 2 1 1 2
7 7 6 4 3 5 4 6 7 6 5 4 3 3 4 5 4 4 4 4 4 4 4 4 5 5 6 6 5 4 3 3 3 3 3 3 4 4 3 3 2 2 2 1 1 1 1 1 1
7 6 5 4 4 4 5 4 6 7 5 5 4 3 3 3 4 4 4 4 4 4 3 4 4 4 5 6 6 7 5 4 3 4 3 3 4 4 3 3 2 2 2 1 1 1 1 1 0
4 3 4 5 4 3 5 4 4 6 6 6 4 4 4 3 3 4 4 3 3 4 4 3 4 4 4 5 6 6 5 4 4 4 5 4 3 4 3 3 2 2 2 1 1 1 1 1 1
1 0 2 3 2 4 7 6 4 5 7 6 4 4 4 4 4 3 3 3 3 3 4 3 4 4 4 4 5 5 6 6 6 5 5 4 3 2 3 3 2 2 2 2 1 1 1 0 1
2 3 2 3 4 5 5 5 3 2 3 5 5 4 4 4 4 3 3 3 3 3 3 3 4 4 4 4 4 5 5 6 7 6 5 4 3 2 3 3 2 2 2 2 1 1 1 1 1
4 4 3 3 4 2 5 5 2 2 3 3 4 4 4 4 4 3 3 3 3 3 3 3 3 4 4 4 3 4 4 4 3 4 5 4 3 3 3 3 2 2 2 2 1 1 1 1 1
4 4 2 2 2 2 3 2 2 2 3 3 4 4 3 3 3 3 2 2 3 3 3 3 3 3 4 4 3 3 3 4 4 4 4 4 3 3 4 3 3 2 2 2 2 1 1 1 1
2 2 0 1 2 2 3 3 3 3 2 3 4 3 3 2 3 2 2 2 2 2 2 2 3 3 3 3 3 2 2 3 4 4 5 4 4 4 4 4 3 3 2 2 2 1 1 1 0
2 2 1 2 2 2 2 1 1 3 4 4 3 2 3 3 3 2 2 2 2 2 2 2 2 3 3 3 3 3 2 2 3 3 4 4 4 4 4 4 3 3 3 2 2 1 1 1 1
0 1 2 2 3 2 1 2 3 4 4 4 3 2 3 4 3 3 2 2 2 2 2 2 2 2 2 3 3 3 2 2 3 3 4 4 4 4 4 3 3 3 3 2 2 2 1 1 1
Wind_Direction
257 245 234 228 224 229 234 235 242 236 231 251 336 345 359 360 26 113 160 119 114 124 129 132 130 130 128 126 121 117 115 112 111 111 110 109 107 103 100 96 93 91 87 83 82 79 76 75 71
261 239 225 228 227 228 231 226 238 233 199 74 10 0 32 65 73 105 125 114 118 122 126 130 128 129 128 125 120 116 114 112 109 108 107 104 103 101 97 95 93 90 86 83 80 78 74 73 71
261 244 222 223 227 228 232 212 220 207 131 142 136 357 23 73 95 109 125 123 116 117 120 124 127 128 127 125 121 117 114 111 109 106 104 102 101 99 96 92 88 86 84 81 78 74 71 72 71
238 217 237 236 234 235 245 245 176 180 162 161 149 114 82 24 68 108 124 122 117 117 119 124 127 127 125 122 119 116 113 112 110 107 104 102 100 97 94 88 84 83 82 79 76 72 70 68 68
237 219 224 233 239 242 244 249 208 211 178 178 184 148 102 74 92 111 121 120 119 118 120 126 128 127 125 122 119 116 114 112 111 108 105 102 100 96 93 90 84 81 81 78 74 72 69 66 63
222 229 224 228 235 240 243 239 224 226 202 188 187 161 116 122 114 121 120 117 118 120 120 126 125 125 123 121 119 117 114 112 110 108 105 102 99 97 93 89 85 81 79 77 75 71 67 63 59
230 232 237 236 236 234 232 226 217 225 219 206 187 150 142 132 126 126 122 122 119 121 125 128 129 124 121 119 118 116 114 112 110 108 106 103 100 98 95 90 85 81 78 75 74 71 65 59 53
244 258 241 239 241 238 226 221 227 235 230 236 192 160 152 137 133 127 125 119 117 123 131 135 136 131 127 121 117 116 115 115 113 111 110 108 105 101 94 89 84 81 78 75 70 65 62 58 48
241 241 237 233 240 244 228 226 237 292 312 310 30 33 116 126 129 131 127 118 119 125 131 136 135 130 125 124 123 121 122 124 122 120 122 122 113 106 98 93 93 87 80 74 68 60 53 51 36
214 231 236 252 258 260 230 218 218 217 208 218 101 97 122 136 144 150 149 148 144 142 138 136 133 131 130 130 131 136 135 140 134 126 118 101 91 91 101 105 103 96 86 74 63 41 23 14 353
216 235 246 264 288 307 279 230 211 237 223 203 166 149 150 152 161 167 166 160 155 147 139 136 131 132 129 129 130 121 119 122 114 109 108 111 106 107 106 115 116 111 97 63 35 14 2 28 15
232 241 250 265 303 305 276 254 236 243 245 216 149 148 154 164 173 175 175 162 150 142 138 132 131 128 125 124 124 124 119 116 115 113 111 110 105 96 96 95 89 75 66 39 7 356 32 27 17
233 244 249 255 263 270 269 252 253 256 275 146 135 147 165 173 180 175 171 160 150 147 143 138 136 131 125 118 125 121 118 116 113 109 103 100 108 105 93 89 75 60 55 40 6 17 31 28 18
231 243 250 248 244 248 249 253 241 250 218 182 165 170 180 183 179 168 166 159 154 150 147 141 142 137 132 127 123 117 116 114 115 111 107 99 101 102 95 83 72 59 46 24 21 32 31 27 22
247 242 247 238 230 232 233 246 234 232 200 204 185 178 178 179 174 168 163 154 150 148 147 144 148 145 139 133 130 119 119 120 118 114 110 104 100 103 100 90 75 57 37 28 22 27 29 21 23
231 230 234 231 217 215 212 241 226 200 195 209 194 178 170 171 172 152 144 144 145 143 143 148 153 145 136 130 128 123 123 122 119 118 117 110 103 103 99 96 88 61 42 39 35 33 32 17 17
207 223 227 231 211 199 210 240 221 187 196 204 193 177 164 161 155 139 138 140 146 145 142 144 144 138 132 124 120 117 119 120 122 119 119 119 111 105 102 100 94 76 57 40 32 40 36 26 12
207 221 222 222 207 207 216 230 201 186 192 192 184 170 161 157 151 142 136 135 135 136 141 141 138 137 131 122 117 112 116 122 121 121 123 121 117 110 104 105 94 82 77 49 45 48 30 35 1
227 228 235 234 209 213 223 229 221 194 190 195 192 172 158 149 135 127 128 127 126 125 134 144 142 146 140 135 138 134 142 141 129 126 127 126 121 114 107 108 98 83 89 74 51 53 47 26 7
236 236 239 245 219 221 222 230 224 203 196 190 186 165 153 135 129 125 126 128 133 136 136 142 146 151 146 145 145 137 136 135 131 125 128 130 124 119 117 116 112 100 92 66 53 54 50 19 23
238 233 239 240 258 242 223 235 214 217 197 181 165 154 143 148 150 142 136 130 136 142 148 149 152 155 151 143 130 121 108 107 116 131 139 138 133 125 121 121 116 108 108 108 71 71 78 66 357
235 245 247 234 212 226 202 231 214 196 184 170 161 149 146 149 151 146 140 139 146 147 141 146 149 152 152 145 147 151 151 153 158 153 148 140 136 133 130 127 120 117 110 110 105 80 81 101 19
232 258 248 234 227 242 214 218 222 177 187 180 170 158 152 144 140 140 139 141 140 140 143 148 146 149 149 152 154 156 151 147 138 140 143 142 141 139 137 134 129 126 116 112 92 79 72 102 130
254 262 246 247 226 233 213 209 224 195 188 173 166 158 143 135 130 126 116 108 109 123 135 143 148 151 150 151 160 159 156 150 147 151 151 150 146 144 148 144 142 137 131 133 130 119 100 87 87
172 142 165 190 210 231 207 207 219 160 149 157 161 155 138 134 133 129 129 132 128 128 136 147 147 150 147 149 165 159 159 159 160 159 157 153 151 154 162 151 149 143 143 143 135 133 147 131 111
204 185 193 197 202 234 195 201 194 138 124 129 123 129 123 122 127 130 140 144 144 145 147 152 153 152 151 155 161 155 157 160 157 152 152 154 155 157 157 155 153 148 148 144 135 137 160 133 147
185 219 264 288 265 208 200 172 149 108 113 122 111 98 110 114 119 125 133 136 139 151 157 159 154 150 152 152 142 149 151 158 155 153 145 145 144 151 153 156 155 153 151 152 146 157 175 150 173
222 225 140 216 231 229 207 200 191 165 139 108 110 108 116 105 100 105 122 127 131 138 137 135 145 146 146 143 150 145 142 144 148 147 150 150 147 146 152 156 158 157 157 157 155 167 171 152 193
186 203 213 237 255 236 208 236 69 157 157 148 138 118 117 107 100 96 99 106 101 105 116 114 122 126 134 143 147 135 134 138 143 149 153 151 144 148 156 159 156 157 162 160 153 169 165 161 229
260 194 184 206 260 267 256 279 22 59 100 122 132 119 110 108 97 85 74 76 93 104 112 113 114 116 129 141 141 133 133 138 154 155 151 145 143 147 152 152 152 158 159 157 162 181 178 189 222